Weather History for Sheridan, WY

Change the Weather History Date:

Thursday, March 13, 2014

  Actual Average Record
Temperature  
Mean Temperature 38 °F 34 °F  
Max Temperature 55 °F 48 °F 72 °F (1935)
Min Temperature 21 °F 21 °F -9 °F (1917)
Degree Days  
Heating Degree Days 27 31  
Month to date heating degree days 425  
Since 1 July heating degree days 5960  
Cooling Degree Days 0 0  
Month to date cooling degree days 0  
Year to date cooling degree days 0  
Moisture  
Dew Point 22 °F    
Average Humidity 55    
Maximum Humidity 78    
Minimum Humidity 21    
Precipitation  
Precipitation 0.00 in 0.03 in 1.74 in (1918)
Month to date precipitation 0.34  
Year to date precipitation 1.44  
Sea Level Pressure  
Sea Level Pressure 29.94 in    
Wind  
Wind Speed 6 mph (WNW)    
Max Wind Speed 32 mph    
Max Gust Speed 39 mph    
Visibility 10 miles    
Events      
T = Trace of Precipitation, MM = Missing Value Source: NWS Daily Summary

Daily Weather History Graph

Daily Weather History Graph

Search for Another Location

Airport:

Trip Planner

Search our weather history database for the weather conditions in past years. The results will help you decide how hot, cold, wet, or windy it might be!

Date:

Astronomy

Mar. 13, 2014 Rise Set
Actual Time 7:23 AM MDT 7:11 PM MDT
Civil Twilight 6:54 AM MDT 7:40 PM MDT
Nautical Twilight 6:20 AM MDT 8:14 PM MDT
Astronomical Twilight 5:46 AM MDT 8:49 PM MDT
Moon 4:35 PM MDT (3/13) 5:38 AM MDT (3/13)
Length of Visible Light 12h 45m
Length of Day
11h 47m
Waxing Gibbous, 92% of the Moon is Illuminated
Mar 13
Waxing Gibbous
Mar 16
Full
Mar 23
Last Quarter
Mar 30
New
Apr 7
First Quarter

Hourly Weather History & Observations

Time (MDT) Temp. Windchill Dew Point Humidity Pressure Visibility Wind Dir Wind Speed Gust Speed Precip Events Conditions
12:53 AM 24.1 °F - 18.0 °F 77% 30.09 in 10.0 mi Calm Calm - N/A   Clear
1:53 AM 28.0 °F - 17.1 °F 63% 30.06 in 10.0 mi Calm Calm - N/A   Clear
2:53 AM 28.0 °F 24.2 °F 18.0 °F 66% 30.02 in 10.0 mi South 3.5 mph - N/A   Clear
3:53 AM 26.1 °F 19.4 °F 17.1 °F 69% 29.99 in 10.0 mi SSW 5.8 mph - N/A   Clear
4:53 AM 25.0 °F 20.7 °F 17.1 °F 72% 29.97 in 10.0 mi SSW 3.5 mph - N/A   Clear
5:53 AM 24.1 °F - 17.1 °F 75% 29.96 in 10.0 mi Calm Calm - N/A   Clear
6:53 AM 21.9 °F 14.5 °F 16.0 °F 78% 29.96 in 10.0 mi SSW 5.8 mph - N/A   Clear
7:53 AM 26.1 °F 21.9 °F 18.0 °F 71% 29.94 in 10.0 mi SE 3.5 mph - N/A   Clear
8:53 AM 34.0 °F 28.8 °F 19.0 °F 54% 29.90 in 10.0 mi SSE 5.8 mph - N/A   Clear
9:53 AM 39.0 °F 34.0 °F 24.1 °F 55% 29.89 in - North 6.9 mph - N/A   Clear
10:53 AM - - - N/A% 29.82 in 10.0 mi North - - N/A   Clear
11:53 AM 48.9 °F - 21.0 °F 33% 29.88 in 10.0 mi West 6.9 mph - N/A   Clear
12:53 PM 53.1 °F - 23.0 °F 31% 29.86 in 10.0 mi NW 8.1 mph - N/A   Clear
1:53 PM 54.0 °F - 25.0 °F 33% 29.85 in 10.0 mi NW 9.2 mph - N/A   Clear
2:53 PM 54.0 °F - 25.0 °F 33% 29.83 in 10.0 mi NW 20.7 mph 28.8 mph N/A   Clear
3:53 PM 52.0 °F - 25.0 °F 35% 29.85 in 10.0 mi NW 32.2 mph 39.1 mph N/A   Clear
4:53 PM 52.0 °F - 25.0 °F 35% 29.86 in 10.0 mi NW 26.5 mph 35.7 mph N/A   Clear
5:53 PM 48.9 °F - 25.0 °F 39% 29.89 in 10.0 mi NNW 21.9 mph 31.1 mph N/A   Clear
6:53 PM 43.0 °F 36.4 °F 28.0 °F 56% 29.94 in 10.0 mi NW 12.7 mph - N/A   Clear
7:53 PM 39.0 °F 30.3 °F 28.0 °F 65% 29.99 in 10.0 mi NW 16.1 mph - N/A   Clear
8:53 PM 36.0 °F 29.0 °F 27.0 °F 70% 30.00 in 10.0 mi NW 9.2 mph - N/A   Clear
9:53 PM 37.0 °F 29.8 °F 26.1 °F 65% 30.02 in 10.0 mi WNW 10.4 mph - N/A   Clear
10:53 PM 33.1 °F 24.4 °F 26.1 °F 75% 29.97 in 10.0 mi West 11.5 mph - N/A   Clear
11:53 PM 35.1 °F - 25.0 °F 67% 30.00 in 10.0 mi Calm Calm - N/A   Clear